Regional Weather Roundup
Issued by NWS

Home | Current Version | Previous Version | Text Only | Print | Product List | Glossary Off
Versions: 1 2 3 4 5 6 7 8 9 10 11 12 13 14 15 16 17 18 19 20 21 22 23 24 25 26 27 28 29 30 31 32 33 34 35 36 37 38 39 40 41 42 43 44 45 46 47 48 49 50

000
ASUS43 KFSD 230010
RWRSD

WEATHER ROUNDUP FOR SOUTH DAKOTA
NATIONAL WEATHER SERVICE SIOUX FALLS SD
700 PM CDT SUN APR 22 2018

NOTE: "FAIR" INDICATES FEW OR NO CLOUDS BELOW 12,000 FEET WITH NO
SIGNIFICANT WEATHER AND/OR OBSTRUCTIONS TO VISIBILITY.


SDZ001>005-009-010-012>017-230100-
NORTHWEST AND NORTH CENTRAL SOUTH DAKOTA

CITY           SKY/WX    TMP DP  RH WIND       PRES   REMARKS
BUFFALO          N/A     68  33  27 N9        30.00
FAITH            N/A     64  37  36 SE8       30.06F
MOBRIDGE       SUNNY     65  39  38 S10       30.08S
$$

SDZ012>016-024>037-041>051-057-063-072>074-230100-
SOUTHWEST AND SOUTH CENTRAL SOUTH DAKOTA

CITY           SKY/WX    TMP DP  RH WIND       PRES   REMARKS
RAPID CTY ARPT SUNNY     64  37  36 E6        30.06S
PIERRE         SUNNY     63  39  41 S16       30.10F
CUSTER         SUNNY     57  33  40 E8        30.11S
ELLSWORTH AFB  SUNNY    N/A N/A N/A SE12      30.06F
PHILIP         SUNNY     65  39  38 SE10      30.07S
PINE RIDGE     SUNNY     64  40  41 S7        30.07S
SPEARFISH      FAIR      63  37  39 E13       30.07S
WINNER         FAIR      62  37  39 S13       30.14S
$$

SDZ004>011-016>023-039-040-230100-
NORTHEAST SOUTH DAKOTA

CITY           SKY/WX    TMP DP  RH WIND       PRES   REMARKS
ABERDEEN       SUNNY     63  33  32 S13       30.16F
WATERTOWN      SUNNY     56  39  53 S10       30.19S
BROOKINGS      SUNNY     55  39  54 SE13      30.21S
SISSETON         N/A     58  35  42 S15       30.18F
$$

SDZ017-020-022-023-036>040-048>070-230100-
SOUTHEAST SOUTH DAKOTA

CITY           SKY/WX    TMP DP  RH WIND       PRES   REMARKS
SIOUX FALLS    MOSUNNY   59  37  44 SE13      30.19S
HURON          NOT AVBL
CHAMBERLAIN    SUNNY     63  36  36 SE13      30.15S
MITCHELL       SUNNY     62  39  42 S8        30.17F
YANKTON        SUNNY     64  33  31 E5        30.16F
$$

ABBREVIATIONS USED IN REMARKS
   TC - TEMPERATURE IN CELSIUS
  WCI - WIND CHILL INDEX
   HX - HEAT INDEX
  VSB - VISIBILITY




USA.gov is the U.S. government's official web portal to all federal, state and local government web resources and services.